KUIPER-00144

导读 | 豆包AI

KUIPER-00173是美国亚马逊“柯伊伯计划”卫星互联网星座中的一颗量产卫星,于2025年9月25日由美国发射升空,运行在近地轨道。该卫星是亚马逊计划部署的3236颗低轨互联网卫星之一,旨在为全球提供高速、经济的宽带互联网接入服务,补充地面网络覆盖盲区,推动全球互联基础设施建设,是商业低轨卫星互联网布局的重要组成部分。

基本信息
目录编号:
65786
目录名称:
KUIPER-00173
国际标识:
2025-217AA
轨道中心:
EARTH
卫星名称:
KUIPER-00173
卫星全名:
KUIPER-00144
卫星状态:
在轨 (已飞行242 天)
发射日期:
2025-09-25 UTC
国别 :
美国 (US)
星等 :
--
轨道信息
数据来源 国际轨道数据 AOE轨道数据
星历时间 2026-05-24T12:37:07+0800
23小时前
查看轨道信息
2026-05-23T23:00:00+0800
1天前
查看轨道信息
半长轴 7007.655km 7007.655km
偏心率 0.0001305 0.0001286
轨道倾角 51.902° 51.899°
近地点辐角 69.770° 85.971°
升交点赤经 59.237° 61.744°
平近点角 290.340° 129.185°
近地点 628.603km 628.616km
远地点 630.433km 630.42km
周期 97.301分钟 97.301分钟
每日圈数 14.799387 14.799386
详细信息
使用方式:
暂无
2D轨道图
3D轨道图
轨道高度分析图
轨道倾角分析图
轨道综合分析图
查看轨道综合分析图